Regional Weather Roundup
Issued by NWS State College, PA

Home | Current Version | Previous Version | Graphics & Text | Print | Product List | Glossary On
Versions: 1 2 3 4 5 6 7 8 9 10 11 12 13 14 15 16 17 18 19 20 21 22 23 24 25 26 27 28 29 30 31 32 33 34 35 36 37 38 39 40 41 42 43 44 45 46 47 48 49 50
000
ASUS41 KCTP 281210
RWRCTP

REGIONAL WEATHER ROUNDUP
NATIONAL WEATHER SERVICE STATE COLLEGE PA
800 AM EDT THU AUG 28 2014

Note: "fair" indicates few or no clouds below 12,000 feet with no
significant weather and/or obstructions to visibility.

* = STATION THAT DOES NOT REPORT PRECIPITATION /E.G. RAIN...SNOW...ETC/
    THUNDER OR FOG.

PAZ002>004-007>009-013>016-020>023-029>032-281300-
WESTERN PENNSYLVANIA

CITY           SKY/WX    TMP DP  RH WIND       PRES   REMARKS
ERIE           MOSUNNY   63  48  58 NW9       30.12R
MEADVILLE      SUNNY     57  49  74 NW5       30.13R
FRANKLIN*      SUNNY     55  50  82 NW3       30.13R
NEW CASTLE     FAIR      57  56  97 CALM      30.14R
BEAVER COUNTY  SUNNY     59  55  88 N3        30.13R
BUTLER*        MOSUNNY   57  54  88 N3        30.14R
PITTSBURGH INT MOSUNNY   61  56  83 N7        30.12R
PITTSBURGH     MOSUNNY   60  55  83 VRB6      30.11R
INDIANA*       CLOUDY    59  57  94 CALM      30.14R
LATROBE        PTSUNNY   59  59 100 CALM      30.11R
WASHINGTON CO* MOSUNNY   59  55  88 CALM      30.12R
$$

PAZ004>006-010>012-017>019-024>028-033>037-041-042-045-046-049>053-281300-
CENTRAL PENNSYLVANIA

CITY           SKY/WX    TMP DP  RH WIND       PRES   REMARKS
BRADFORD       CLOUDY    54  50  86 NW8       30.09R
DUBOIS         SUNNY     55  54  96 W5        30.09R
CLEARFIELD     SUNNY     59  56  89 SW5       30.08R
JOHNSTOWN      MOSUNNY   58  55  90 NW13      30.10R
ALTOONA        CLOUDY    62  57  83 N8        30.08R
STATE COLLEGE  MOSUNNY   59  57  94 CALM      30.05S
WILLIAMSPORT   CLOUDY    65  54  67 W5        30.01R
SELINSGROVE    CLOUDY    63  60  90 CALM      30.02S
FT INDIANTOWN  SUNNY     66  57  71 N8        30.00R
CAPITAL CITY   MOSUNNY   67  57  70 N7        30.00R
HARRISBURG     MOSUNNY   69  58  67 N9        29.98S
YORK           SUNNY     68  60  75 N6        30.00R
$$

PAZ038>040-043-044-047-048-054-055-060>062-067>071-281300-
EASTERN PENNSYLVANIA

CITY           SKY/WX    TMP DP  RH WIND       PRES   REMARKS
SCRANTON       PTSUNNY   61  53  75 N6        30.01S
MOUNT POCONO   MOSUNNY   59  51  75 NW17G23   29.99R
ALLENTOWN      SUNNY     66  55  67 NW9       29.97R
QUAKERTOWN*    SUNNY     64  55  72 MISG      29.96S
READING        SUNNY     67  56  67 N7        29.97R
LANCASTER      SUNNY     67  58  72 N8        29.98R
COATESVILLE    SUNNY     66  63  88 N12       29.98R
POTTSTOWN      SUNNY     67  56  67 N9        29.97R
BLUE BELL      SUNNY     70  57  64 N5        29.94R
DOYLESTOWN     SUNNY     66  57  72 NW8       29.94R
WILLOW GROVE   NOT AVBL
NORTH PHILA    SUNNY     72  54  53 N9        29.94R
PHILADELPHIA   MOSUNNY   72  56  57 N16       29.93R
$$



USA.gov is the U.S. government's official web portal to all federal, state and local government web resources and services.